Location: Newark
(50.0306°N, 2.3272°E)
Time: 16:24:15
(UTC+00:00)

Tiros 1 - All Passes

Search period start: 11 December 2019 00:00
Search period end: 21 December 2019 00:00
Orbit: 630 x 664 km, 48.4° (Epoch: 11 December)

Date Brightness Start Highest point End Pass type
(mag) Time Alt. Az. Time Alt. Az. Time Alt. Az.
11 Dec - 04:31:18 10° SSE 04:32:20 11° SE 04:33:21 10° ESE visible
11 Dec - 06:09:16 10° SW 06:13:34 36° SSE 06:17:50 10° E visible
11 Dec - 07:50:45 10° WSW 07:55:25 70° S 08:00:04 10° E daylight
11 Dec - 09:32:52 10° W 09:37:30 64° SSW 09:42:04 10° ESE daylight
11 Dec - 11:15:14 10° W 11:19:14 28° SSW 11:23:11 10° SSE daylight
12 Dec - 04:54:22 10° S 04:57:51 21° SE 05:01:19 10° E visible
12 Dec - 06:34:50 10° WSW 06:39:25 53° SSE 06:43:58 10° E visible
12 Dec - 08:16:45 10° W 08:21:27 74° S 08:26:05 10° E daylight
12 Dec - 09:58:57 10° W 10:03:26 47° SSW 10:07:51 10° SE daylight
12 Dec - 11:41:58 10° WSW 11:44:50 16° SW 11:47:42 10° S daylight
13 Dec - 05:19:17 10° SW 05:23:32 34° SSE 05:27:47 10° E visible
13 Dec - 07:00:42 10° WSW 07:05:23 69° S 07:10:02 10° E visible
13 Dec - 08:42:49 10° W 08:47:27 66° SSW 08:52:04 10° ESE daylight
13 Dec - 10:25:10 10° W 10:29:14 30° SSW 10:33:15 10° SSE daylight
14 Dec - 04:04:29 10° S 04:07:51 19° SE 04:11:12 10° E visible
14 Dec - 05:44:48 10° SW 05:49:23 51° SSE 05:53:57 10° E visible
14 Dec - 07:26:42 10° W 07:31:24 74° S 07:36:04 10° E daylight
14 Dec - 09:08:54 10° W 09:13:24 49° SSW 09:17:52 10° SE daylight
14 Dec - 10:51:48 10° W 10:54:52 17° SW 10:57:55 10° S daylight
15 Dec - 04:29:18 10° SW 04:33:32 33° SSE 04:37:44 10° E visible
15 Dec - 06:10:39 10° WSW 06:15:21 67° S 06:20:01 10° E visible
15 Dec - 07:52:46 10° W 07:57:26 67° S 08:02:03 10° ESE daylight
15 Dec - 09:35:05 10° W 09:39:14 32° SSW 09:43:19 10° SSE daylight
16 Dec - 03:14:37 10° S 03:17:52 18° SE 03:21:05 10° E visible
16 Dec - 04:54:47 10° SW 04:59:22 50° SSE 05:03:55 10° E visible
16 Dec - 06:36:39 10° W 06:41:22 74° S 06:46:03 10° E visible
16 Dec - 08:18:50 10° W 08:23:23 51° SSW 08:27:53 10° SE daylight
16 Dec - 10:01:39 10° W 10:04:53 19° SW 10:08:06 10° S daylight
17 Dec - 03:39:20 10° SSW 03:43:31 31° SSE 03:47:41 10° E visible
17 Dec - 05:20:37 10° WSW 05:25:19 66° S 05:29:59 10° E visible
17 Dec - 07:02:42 10° W 07:07:24 68° S 07:12:02 10° ESE visible
17 Dec - 08:45:01 10° W 08:49:14 33° SSW 08:53:23 10° SE daylight
18 Dec - 02:24:46 10° S 02:27:52 17° SE 02:30:57 10° E visible
18 Dec - 04:04:46 10° SW 04:09:20 48° SSE 04:13:53 10° E visible
18 Dec - 05:46:37 10° W 05:51:20 74° S 05:56:02 10° E visible
18 Dec - 07:28:47 10° W 07:33:22 53° SSW 07:37:54 10° ESE daylight
18 Dec - 09:11:31 10° W 09:14:53 20° SW 09:18:15 10° S daylight
19 Dec - 02:49:22 10° SSW 02:53:30 30° SSE 02:57:37 10° E visible
19 Dec - 04:30:34 10° WSW 04:35:17 65° SSE 04:39:57 10° E visible
19 Dec - 06:12:39 10° W 06:17:22 70° S 06:22:01 10° ESE visible
19 Dec - 07:54:56 10° W 07:59:13 35° SSW 08:03:27 10° SE daylight
19 Dec - 09:39:56 10° SW 09:40:24 10° SW 09:40:52 10° SW daylight
20 Dec - 01:34:56 10° S 01:37:52 16° SE 01:40:48 10° ESE night (unlit)
20 Dec - 03:14:45 10° SW 03:19:19 46° SSE 03:23:50 10° E visible
20 Dec - 04:56:33 10° W 05:01:18 74° S 05:06:00 10° E visible
20 Dec - 06:38:43 10° W 06:43:20 55° SSW 06:47:54 10° ESE visible
20 Dec - 08:21:23 10° W 08:24:54 21° SW 08:28:24 10° SSE daylight
